Sheppard AFB, TX

8:00 AM CST on January 16, 2017 (GMT -0600)
Sheppard Air Force Base-Wichita Falls Municipal

Weather History for KSPS - February, 2013

Change the Weather History Date:

Tuesday, February 26, 2013

  Actual Average Record
Temperature  
Mean Temperature 43 °F 49 °F  
Max Temperature 53 °F 61 °F 91 °F (2009)
Min Temperature 32 °F 36 °F 16 °F (1934)
Degree Days  
Heating Degree Days 22 16  
Month to date heating degree days 472 505  
Since 1 July heating degree days 2171 2415  
Moisture  
Dew Point 31 °F    
Average Humidity 67    
Maximum Humidity 89    
Minimum Humidity 44    
Precipitation  
Precipitation 0.00 in 0.08 in 2.16 in (1903)
Month to date precipitation 2.05 1.59  
Year to date precipitation 2.69 2.73  
Snow  
Snow 0.00 in 0.10 in - ()
Month to date snowfall T 0.7  
Since 1 July snowfall 3.5 3.4  
Snow Depth -    
Sea Level Pressure  
Sea Level Pressure 29.85 in    
Wind  
Wind Speed 13 mph (NW)    
Max Wind Speed 30 mph    
Max Gust Speed 37 mph    
Visibility 10 miles    
Events      
T = Trace of Precipitation, MM = Missing Value Source: NWS Daily Summary

Daily Weather History Graph

Daily Weather History Graph

Search for Another Location

Airport or City:

Trip Planner

Search our weather history database for the weather conditions in past years. The results will help you decide how hot, cold, wet, or windy it might be!

Date:

Astronomy

Feb. 26, 2013 Rise Set
Actual Time 7:05 AM CST 6:28 PM CST
Civil Twilight 6:40 AM CST 6:53 PM CST
Nautical Twilight 6:11 AM CST 7:22 PM CST
Astronomical Twilight 5:42 AM CST 7:51 PM CST
Moon 7:40 PM CST (2/26) 7:14 AM CST (2/26)
Length of Visible Light 12h 12m
Length of Day
11h 22m
Full, 99% of the Moon is Illuminated
Feb 26
Full
Mar 4
Last Quarter
Mar 11
New
Mar 19
First Quarter
Mar 27
Full

Hourly Weather History & Observations

Time (CST) Temp. Windchill Dew Point Humidity Pressure Visibility Wind Dir Wind Speed Gust Speed Precip Events Conditions
12:33 AM 35.6 °F 23.7 °F 30.2 °F 81% 29.75 in 10.0 mi NW 24.2 mph 32.2 mph N/A   Overcast
12:52 AM 37.0 °F 25.4 °F 30.9 °F 79% 29.77 in 10.0 mi NW 25.3 mph 32.2 mph N/A   Overcast
1:20 AM 37.4 °F 26.1 °F 30.2 °F 75% 29.78 in 10.0 mi NW 24.2 mph 32.2 mph N/A   Overcast
1:52 AM 36.0 °F 25.3 °F 30.9 °F 82% 29.79 in 10.0 mi WNW 19.6 mph 29.9 mph N/A   Mostly Cloudy
2:15 AM 35.6 °F 25.2 °F 30.2 °F 81% 29.77 in 10.0 mi NW 18.4 mph 27.6 mph N/A   Scattered Clouds
2:52 AM 35.1 °F 23.5 °F 30.0 °F 82% 29.78 in 10.0 mi NW 21.9 mph 27.6 mph N/A   Clear
3:52 AM 34.0 °F 23.4 °F 28.9 °F 82% 29.79 in 10.0 mi WNW 17.3 mph - N/A   Overcast
4:52 AM 35.1 °F 24.1 °F 30.0 °F 82% 29.81 in 10.0 mi WNW 19.6 mph 26.5 mph N/A   Mostly Cloudy
5:52 AM 34.0 °F 23.8 °F 28.9 °F 82% 29.82 in 10.0 mi NW 16.1 mph - N/A   Mostly Cloudy
6:52 AM 32.0 °F 22.5 °F 28.0 °F 85% 29.85 in 10.0 mi WNW 12.7 mph - N/A   Partly Cloudy
7:52 AM 33.1 °F 23.0 °F 28.0 °F 82% 29.87 in 10.0 mi WNW 15.0 mph - N/A   Clear
8:52 AM 37.0 °F 26.7 °F 28.9 °F 73% 29.88 in 10.0 mi NW 19.6 mph 24.2 mph N/A   Clear
9:52 AM 39.0 °F 30.6 °F 30.0 °F 70% 29.88 in 10.0 mi NW 15.0 mph - N/A   Clear
10:52 AM 43.0 °F 35.4 °F 32.0 °F 65% 29.91 in 10.0 mi NW 16.1 mph 23.0 mph N/A   Clear
11:52 AM 46.0 °F 40.6 °F 30.9 °F 56% 29.90 in 10.0 mi NW 11.5 mph - N/A   Clear
12:52 PM 50.0 °F - 30.0 °F 46% 29.88 in 10.0 mi NW 11.5 mph - N/A   Clear
1:52 PM 50.0 °F - 30.9 °F 48% 29.86 in 10.0 mi NW 11.5 mph - N/A   Clear
2:52 PM 51.1 °F - 30.9 °F 46% 29.84 in 10.0 mi NNW 11.5 mph - N/A   Clear
3:52 PM 52.0 °F - 30.9 °F 45% 29.84 in 10.0 mi NNW 6.9 mph - N/A   Clear
4:52 PM 51.1 °F - 32.0 °F 48% 29.84 in 10.0 mi West 6.9 mph - N/A   Clear
5:52 PM 50.0 °F - 33.1 °F 52% 29.84 in 10.0 mi WNW 8.1 mph - N/A   Clear
6:52 PM 46.0 °F 43.9 °F 34.0 °F 63% 29.86 in 10.0 mi NW 4.6 mph - N/A   Clear
7:52 PM 43.0 °F 40.3 °F 34.0 °F 71% 29.87 in 10.0 mi North 4.6 mph - N/A   Clear
8:52 PM 39.0 °F 34.8 °F 33.1 °F 79% 29.89 in 10.0 mi North 5.8 mph - N/A   Clear
9:52 PM 37.9 °F 30.5 °F 33.1 °F 83% 29.91 in 10.0 mi NNE 11.5 mph - N/A   Clear
10:52 PM 35.6 °F 28.0 °F 30.2 °F 81% 29.90 in 10.0 mi NNE 10.4 mph - N/A   Clear
11:52 PM 33.1 °F 28.7 °F 30.0 °F 89% 29.92 in 10.0 mi North 4.6 mph - N/A   Clear